VKG4147 LGSA-ESMS

Flight info

Callsign VKG4147
Flight time N/A
Altitude 38000
Route SOKRI UB1 DDM DCT XANIS DCT DIMIS DCT VOLBI DCT RETRA DCT NILKU DCT VEBAL DCT NALOX DCT STEIN DCT STO DCT LANUX DCT VLM DCT HDO M725 LUROS DCT MASOR M725 KOGIM M44 ARGAD Z400 BAKLI
Aircraft A321/M-SDE3FGHIRWY/LB1

Departure

Time N/A
Airport Chania International Airport (LGSA)

Arrival

Time 2026-04-25 15:37
Airport Malmö Sturup Airport (ESMS)
Time Latitude Longitude Altitude Speed Heading
2026-04-25 14:39 49.97700 14.91466 38021 ft 414 kts 336°
2026-04-25 14:39 50.00406 14.89930 38027 ft 414 kts 336°
2026-04-25 14:39 50.05823 14.86869 38013 ft 414 kts 336°
2026-04-25 14:40 50.11247 14.83817 38015 ft 414 kts 336°
2026-04-25 14:40 50.16661 14.80759 37997 ft 414 kts 336°
2026-04-25 14:41 50.22078 14.77682 38012 ft 414 kts 336°
2026-04-25 14:41 50.27491 14.74609 38002 ft 414 kts 336°
2026-04-25 14:42 50.31113 14.72550 38008 ft 414 kts 336°
2026-04-25 14:42 50.37398 14.68958 38012 ft 414 kts 336°
2026-04-25 14:43 50.42811 14.65864 38039 ft 414 kts 336°
2026-04-25 14:43 50.48219 14.62766 38028 ft 413 kts 336°
2026-04-25 14:44 50.53618 14.59663 38022 ft 413 kts 335°
2026-04-25 14:44 50.59012 14.56546 38007 ft 413 kts 336°
2026-04-25 14:45 50.64407 14.53429 37999 ft 413 kts 336°
2026-04-25 14:45 50.69762 14.50337 38042 ft 412 kts 335°
2026-04-25 14:46 50.75144 14.47208 38025 ft 412 kts 335°
2026-04-25 14:46 50.80520 14.44067 38022 ft 412 kts 335°
2026-04-25 14:47 50.85023 14.41430 38023 ft 412 kts 335°
2026-04-25 14:47 50.91268 14.37783 38014 ft 412 kts 337°
2026-04-25 14:48 50.96946 14.36046 38026 ft 418 kts 347°
2026-04-25 14:48 51.02727 14.34930 38016 ft 418 kts 347°
2026-04-25 14:49 51.08507 14.33796 38016 ft 418 kts 347°
2026-04-25 14:49 51.14285 14.32646 38016 ft 418 kts 347°
2026-04-25 14:50 51.20055 14.31505 38039 ft 418 kts 347°
2026-04-25 14:50 51.25818 14.30364 38023 ft 417 kts 347°
2026-04-25 14:51 51.31577 14.29213 38011 ft 417 kts 347°
2026-04-25 14:51 51.37337 14.28051 38008 ft 417 kts 347°
2026-04-25 14:52 51.43103 14.26896 38007 ft 418 kts 347°
2026-04-25 14:52 51.47892 14.25938 37993 ft 417 kts 347°
2026-04-25 14:53 51.54631 14.24584 37982 ft 418 kts 347°
2026-04-25 14:53 51.60369 14.23423 37983 ft 418 kts 347°
2026-04-25 14:54 51.66146 14.22254 38017 ft 418 kts 347°
2026-04-25 14:54 51.71924 14.21086 37999 ft 419 kts 347°
2026-04-25 14:55 51.77710 14.19913 37991 ft 419 kts 347°
2026-04-25 14:55 51.83497 14.18733 37980 ft 419 kts 347°
2026-04-25 14:56 51.89280 14.17555 37980 ft 419 kts 347°
2026-04-25 14:56 51.95039 14.16243 37966 ft 416 kts 346°
2026-04-25 14:57 52.00749 14.14773 37974 ft 415 kts 345°
2026-04-25 14:57 52.06456 14.13295 37965 ft 416 kts 345°
2026-04-25 14:58 52.12177 14.11848 37956 ft 416 kts 346°
2026-04-25 14:58 52.17900 14.10411 37979 ft 416 kts 346°
2026-04-25 14:59 52.23607 14.08982 37967 ft 414 kts 345°
2026-04-25 14:59 52.29313 14.07537 37962 ft 415 kts 345°
2026-04-25 15:00 52.34979 14.06090 37957 ft 414 kts 345°
2026-04-25 15:00 52.40678 14.04646 37959 ft 414 kts 345°
2026-04-25 15:01 52.46377 14.03193 37973 ft 414 kts 345°
2026-04-25 15:01 52.52074 14.01724 37959 ft 414 kts 345°
2026-04-25 15:02 52.57762 14.00278 37952 ft 414 kts 345°
2026-04-25 15:02 52.63452 13.98822 37941 ft 413 kts 345°
2026-04-25 15:03 52.69143 13.97354 37941 ft 413 kts 345°
2026-04-25 15:03 52.74825 13.95883 37943 ft 413 kts 345°
2026-04-25 15:04 52.80511 13.94407 37942 ft 413 kts 345°
2026-04-25 15:04 52.86188 13.92927 37941 ft 413 kts 345°
2026-04-25 15:05 52.91864 13.91446 37946 ft 413 kts 345°
2026-04-25 15:06 53.00344 13.89225 37925 ft 410 kts 345°
2026-04-25 15:06 53.05984 13.87752 37926 ft 410 kts 345°
2026-04-25 15:07 53.11629 13.86265 37912 ft 411 kts 345°
2026-04-25 15:07 53.17273 13.84772 37923 ft 410 kts 345°
2026-04-25 15:08 53.22891 13.83291 37919 ft 405 kts 345°
2026-04-25 15:08 53.28448 13.81827 37918 ft 404 kts 345°
2026-04-25 15:09 53.34003 13.80348 37921 ft 404 kts 345°
2026-04-25 15:09 53.42298 13.78123 37926 ft 404 kts 345°
2026-04-25 15:10 53.47846 13.76637 37924 ft 402 kts 345°
2026-04-25 15:11 53.56095 13.74422 37931 ft 400 kts 345°
2026-04-25 15:11 53.61591 13.72948 37931 ft 400 kts 345°
2026-04-25 15:12 53.69836 13.70732 37927 ft 400 kts 345°
2026-04-25 15:12 53.73505 13.69739 37920 ft 398 kts 344°
2026-04-25 15:13 53.83474 13.67022 36993 ft 401 kts 344°
2026-04-25 15:13 53.86244 13.66258 36081 ft 405 kts 343°
2026-04-25 15:14 53.89033 13.65487 35247 ft 406 kts 343°
2026-04-25 15:14 53.91770 13.64741 33963 ft 403 kts 343°
2026-04-25 15:14 53.94549 13.63994 32256 ft 406 kts 343°
2026-04-25 15:14 53.97358 13.63257 30526 ft 410 kts 343°
2026-04-25 15:15 54.00148 13.62550 29663 ft 397 kts 343°
2026-04-25 15:15 54.02773 13.61921 29483 ft 366 kts 342°
2026-04-25 15:15 54.05272 13.61313 29001 ft 362 kts 342°
2026-04-25 15:15 54.07753 13.60682 28448 ft 359 kts 342°
2026-04-25 15:16 54.10214 13.60040 27896 ft 356 kts 341°
2026-04-25 15:16 54.12655 13.59398 27373 ft 354 kts 341°
2026-04-25 15:16 54.17484 13.58133 26312 ft 349 kts 341°
2026-04-25 15:17 54.22254 13.56892 25252 ft 344 kts 341°
2026-04-25 15:17 54.24617 13.56276 24812 ft 342 kts 340°
2026-04-25 15:17 54.26970 13.55654 24232 ft 342 kts 340°
2026-04-25 15:18 54.29318 13.55034 23736 ft 340 kts 340°
2026-04-25 15:18 54.33925 13.53828 22730 ft 333 kts 341°
2026-04-25 15:18 54.36202 13.53260 22279 ft 328 kts 341°
2026-04-25 15:19 54.38444 13.52709 21862 ft 323 kts 341°
2026-04-25 15:19 54.39196 13.52522 21717 ft 322 kts 341°
2026-04-25 15:19 54.42853 13.51608 21028 ft 318 kts 341°
2026-04-25 15:19 54.45089 13.51024 20858 ft 333 kts 341°
2026-04-25 15:20 54.47407 13.50411 20877 ft 340 kts 341°
2026-04-25 15:20 54.49755 13.49816 20868 ft 342 kts 344°
2026-04-25 15:20 54.52182 13.49819 20922 ft 356 kts 354°
2026-04-25 15:20 54.54635 13.50231 20668 ft 350 kts 354°
2026-04-25 15:21 54.57046 13.50634 19297 ft 350 kts 354°
2026-04-25 15:21 54.59489 13.51013 17799 ft 355 kts 354°
2026-04-25 15:21 54.61927 13.51391 16841 ft 343 kts 354°
2026-04-25 15:21 54.64201 13.51781 16653 ft 313 kts 354°
2026-04-25 15:22 54.66319 13.52148 16272 ft 306 kts 353°
2026-04-25 15:22 54.68455 13.52470 15827 ft 308 kts 353°
2026-04-25 15:22 54.70585 13.52786 15394 ft 307 kts 353°
2026-04-25 15:22 54.72707 13.53104 14944 ft 305 kts 353°
2026-04-25 15:23 54.74817 13.53421 14499 ft 304 kts 353°
2026-04-25 15:23 54.76928 13.53743 14139 ft 304 kts 353°
2026-04-25 15:23 54.79036 13.54067 13651 ft 305 kts 354°
2026-04-25 15:23 54.81145 13.54397 13165 ft 304 kts 354°
2026-04-25 15:24 54.83251 13.54734 12709 ft 302 kts 354°
2026-04-25 15:24 54.85339 13.55073 12270 ft 300 kts 354°
2026-04-25 15:24 54.87415 13.55408 11821 ft 299 kts 354°
2026-04-25 15:24 54.88087 13.55515 11677 ft 298 kts 355°
2026-04-25 15:25 54.91527 13.55934 10945 ft 289 kts 348°
2026-04-25 15:25 54.93451 13.55496 10529 ft 279 kts 340°
2026-04-25 15:25 54.95343 13.54861 10293 ft 271 kts 340°
2026-04-25 15:25 54.97159 13.54271 10175 ft 260 kts 340°
2026-04-25 15:26 54.98911 13.53699 9933 ft 253 kts 340°
2026-04-25 15:26 55.00627 13.53126 9729 ft 249 kts 340°
2026-04-25 15:26 55.02334 13.52551 9597 ft 249 kts 340°
2026-04-25 15:26 55.04036 13.51975 9483 ft 249 kts 340°
2026-04-25 15:27 55.05740 13.51395 9275 ft 250 kts 340°
2026-04-25 15:27 55.07443 13.50818 8858 ft 249 kts 341°
2026-04-25 15:27 55.10836 13.49684 8001 ft 248 kts 341°
2026-04-25 15:28 55.12530 13.49116 7575 ft 248 kts 342°
2026-04-25 15:28 55.13651 13.48740 7281 ft 248 kts 342°
2026-04-25 15:28 55.15346 13.48171 6892 ft 246 kts 342°
2026-04-25 15:28 55.17030 13.47605 6480 ft 246 kts 343°
2026-04-25 15:29 55.18712 13.47039 6008 ft 248 kts 343°
2026-04-25 15:29 55.20410 13.46468 5528 ft 248 kts 343°
2026-04-25 15:29 55.22105 13.45898 5091 ft 248 kts 343°
2026-04-25 15:29 55.23788 13.45336 4811 ft 241 kts 343°
2026-04-25 15:30 55.25383 13.44810 4797 ft 224 kts 342°
2026-04-25 15:30 55.26881 13.44317 4526 ft 220 kts 342°
2026-04-25 15:30 55.28396 13.43799 3932 ft 229 kts 342°
2026-04-25 15:30 55.29958 13.43266 3691 ft 221 kts 341°
2026-04-25 15:31 55.31417 13.42778 3573 ft 211 kts 341°
2026-04-25 15:31 55.32804 13.42232 3479 ft 193 kts 337°
2026-04-25 15:31 55.34066 13.41738 3386 ft 184 kts 341°
2026-04-25 15:31 55.35274 13.41422 3322 ft 166 kts 342°
2026-04-25 15:32 55.36363 13.41181 3233 ft 150 kts 342°
2026-04-25 15:32 55.37362 13.40969 3178 ft 141 kts 341°
2026-04-25 15:32 55.38323 13.40765 3054 ft 138 kts 341°
2026-04-25 15:33 55.40206 13.40374 2707 ft 135 kts 342°
2026-04-25 15:33 55.41137 13.40182 2550 ft 135 kts 342°
2026-04-25 15:33 55.42066 13.39991 2350 ft 134 kts 342°
2026-04-25 15:33 55.42997 13.39800 2160 ft 134 kts 342°
2026-04-25 15:34 55.43923 13.39612 1967 ft 133 kts 342°
2026-04-25 15:34 55.44832 13.39426 1797 ft 130 kts 342°
2026-04-25 15:34 55.45728 13.39242 1613 ft 129 kts 342°
2026-04-25 15:34 55.46320 13.39120 1496 ft 130 kts 343°
2026-04-25 15:35 55.48412 13.38691 1062 ft 129 kts 343°
2026-04-25 15:35 55.49309 13.38508 883 ft 130 kts 344°
2026-04-25 15:35 55.50206 13.38323 703 ft 128 kts 343°
2026-04-25 15:36 55.51992 13.37964 328 ft 131 kts 343°
2026-04-25 15:36 55.52882 13.37779 244 ft 121 kts 346°
2026-04-25 15:36 55.53549 13.37631 238 ft 58 kts 355°
2026-04-25 15:37 55.53811 13.37580 240 ft 31 kts 353°
2026-04-25 15:37 55.53993 13.37546 242 ft 25 kts 353°
2026-04-25 15:37 55.54165 13.37508 240 ft 18 kts 353°
2026-04-25 15:37 55.54223 13.37405 236 ft 12 kts 257°
2026-04-25 15:38 55.54214 13.37296 232 ft 0 kts 263°
2026-04-25 15:38 55.54214 13.37284 232 ft 2 kts 263°
2026-04-25 15:38 55.54209 13.37248 234 ft 4 kts 252°
2026-04-25 15:39 55.54176 13.37218 232 ft 9 kts 184°
2026-04-25 15:39 55.54078 13.37235 234 ft 19 kts 174°
2026-04-25 15:39 55.53970 13.37219 233 ft 12 kts 236°
2026-04-25 15:39 55.53957 13.37073 231 ft 12 kts 263°
2026-04-25 15:40 55.53957 13.36987 231 ft 3 kts 300°
2026-04-25 15:40 55.53970 13.36979 232 ft 3 kts 338°
2026-04-25 15:40 55.53995 13.36973 231 ft 3 kts 353°
2026-04-25 15:40 55.54012 13.36969 231 ft 1 kts 353°
2026-04-25 15:41 55.54016 13.36969 231 ft 0 kts 353°